Regional Weather Roundup
Issued by NWS

Home | Current Version | Previous Version | Graphics & Text | Print | Product List | Glossary On
Versions: 1 2 3 4 5 6 7 8 9 10 11 12 13 14 15 16 17 18 19 20 21 22 23 24 25 26 27 28 29 30 31 32 33 34 35 36 37 38 39 40 41 42 43 44 45 46 47 48 49 50
181
ASUS43 KOAX 260510
RWRNE

WEATHER ROUNDUP FOR NEBRASKA
NATIONAL WEATHER SERVICE OMAHA NE
1200 AM CDT SUN MAR 26 2017

NOTES: SATELLITE DATA IS BEING USED TO AUGMENT CLOUD COVER ABOVE
       12000 FEET.
       "FAIR" INDICATES FEW OR NO CLOUDS BELOW 12,000 FEET WITH NO
       SIGNIFICANT WEATHER AND/OR OBSTRUCTIONS TO VISIBILITY.

  * THESE STATIONS DO NOT REPORT WEATHER SUCH AS RAIN...SNOW OR FOG.

NEZ001>004-019>022-054>056-260600-
NEBRASKA PANHANDLE

CITY           SKY/WX    TMP DP  RH WIND       PRES   REMARKS
SCOTTSBLUFF    CLOUDY    49  34  56 E10       29.82S
ALLIANCE       CLOUDY    44  30  57 SE9       29.82F
CHADRON        PTCLDY    54  31  41 SW6       29.79S
KIMBALL        CLOUDY    46  33  60 S7        29.84F
SIDNEY         CLOUDY    37  29  72 S6        29.85F WCI  32
$$

NEZ057>060-069>072-079>082-260600-
SOUTHWEST NEBRASKA

CITY           SKY/WX    TMP DP  RH WIND       PRES   REMARKS
NORTH PLATTE   CLOUDY    42  40  92 SE7       29.89S
IMPERIAL       CLOUDY    42  39  89 SE13      29.86F
LEXINGTON      CLOUDY    41  40  94 SE8       29.90F FOG
MCCOOK         CLOUDY    41  41 100 E7        29.89F FOG
OGALLALA       CLOUDY    45  41  88 CALM      29.86F
$$

NEZ005>010-023>029-035>040-094-260600-
NORTH CENTRAL NEBRASKA

CITY           SKY/WX    TMP DP  RH WIND       PRES   REMARKS
VALENTINE      CLOUDY    40  37  89 SE14      29.88S WCI  32
AINSWORTH      CLOUDY    39  38  99 SE13      29.90S WCI  31
BROKEN BOW     CLOUDY    41  40  96 SE7       29.90F
O`NEILL        FOG       39  39 100 E5        29.93F VSB 3/4
ORD            CLOUDY    39  37  92 E5        29.91F FOG
THEDFORD       CLOUDY    39  38  97 SE3       29.89F
$$

NEZ041-046>049-061>064-073>077-083>087-260600-
SOUTH CENTRAL NEBRASKA

CITY           SKY/WX    TMP DP  RH WIND       PRES   REMARKS
GRAND ISLAND   FOG       38  38 100 NE5       29.93F VSB 3/4 WCI  34
AURORA         CLOUDY    38  38 100 NE8       29.92F FOG     WCI  32
HASTINGS       CLOUDY    39  37  92 E8        29.93F FOG     WCI  33
HEBRON         LGT RAIN  40  39  97 CALM      29.93F
HOLDREGE       CLOUDY    40  39  95 E8        29.90F FOG     WCI  35
KEARNEY *      CLOUDY    39  36  87 NE8       29.92F WCI  34
YORK           CLOUDY    39  39 100 N6        29.94F FOG     WCI  35
$$

NEZ011>018-030>034-042>045-260600-
NORTHEAST NEBRASKA

CITY           SKY/WX    TMP DP  RH WIND       PRES   REMARKS
NORFOLK        CLOUDY    38  36  92 E5        29.94S FOG     WCI  34
ALBION         FOG       39  38  94 E5        29.93F VSB 3/4
BLAIR          CLOUDY    40  39  97 N8        29.91F FOG     WCI  34
FREMONT        CLOUDY    39  39 100 NE3       29.93F FOG
TEKAMAH        CLOUDY    40  38  93 NE7       29.93F
WAYNE          CLOUDY    38  38  99 NE3       29.95S FOG
$$

NEZ050>053-065>068-078-088>093-260600-
SOUTHEAST NEBRASKA

CITY           SKY/WX    TMP DP  RH WIND       PRES   REMARKS
LINCOLN        CLOUDY    41  39  93 NE7       29.93F
OMAHA EPPLEY   LGT RAIN  41  37  86 N9        29.92F
BEATRICE       CLOUDY    41  40  97 N5        29.92F
FALLS CITY     CLOUDY    42  41  96 NW6       29.90F
NEBRASKA CITY  CLOUDY    40  40 100 N5        29.90F
PLATTSMOUTH    CLOUDY    40  38  93 N5        29.91S
$$

NEZ044-045-051>053-067-260600-
OMAHA AREA

CITY           SKY/WX    TMP DP  RH WIND       PRES   REMARKS
OMAHA EPPLEY   LGT RAIN  41  37  86 N9        29.92F
BLAIR          CLOUDY    40  39  97 N8        29.91F FOG     WCI  34
FREMONT        CLOUDY    39  39 100 NE3       29.93F FOG
MILLARD        CLOUDY    43  40  91 N3        29.93S
OFFUTT AFB     CLOUDY    41  39  93 N6        29.91F
PLATTSMOUTH    CLOUDY    40  38  93 N5        29.91S
WAHOO          CLOUDY    40  38  95 NE7       29.92F WCI  35
$$




USA.gov is the U.S. government's official web portal to all federal, state and local government web resources and services.